Погода в Чалне

Россия / Республика Карелия     61°53′03″N   34°03′58″E
темп.,
°C
ветер,
м/с
пор.,
м/с
влажн.,
%
обл.,
%
осадки,
мм/ч
давл.,
гПа
погр.,
м
13 мая, чт
чт1300:00+15ююв11640 0.0 102011
03:00+13юв11690 0.0 102010
06:00+15в11640 0.0 101824
09:00+21ююв23502 0.0 1018454
12:00+23вюв45425 0.0 10171012
15:00+23вюв464529 0.0 1015875
18:00+19в245815 0.0 1014105
21:00+16вюв22725 0.0 101341
14 мая, пт
пт1400:00+14вюв118255 0.0 101111
03:00+12всв118471 0.0 101017
06:00+13ююз3888100 0.6 1009379
09:00+12ююз498842 1.9 1011595
12:00+15ююз577189 0.9 10121200
15:00+15ююз596648 1.9 10121240
18:00+16ююз3955100 0.1 10121618
21:00+13ююв267782 0.1 1012136
15 мая, сб
сб1500:00+12ю1278100 0.0 101248
03:00+12ююз1282100 0.0 101259
06:00+12ююв018197 0.0 101139
09:00+17вюв23585 0.0 1011615
12:00+20вюв334545 0.0 10101825
15:00+20в324645 0.0 10091234
18:00+19в234818 0.0 1008763
21:00+14св11671 0.0 100711
16 мая, вс
вс1600:00+12ссв399078 0.0 1007262
03:00+11ссв3995100 0.0 1007278
06:00+10ссв3989100 0.0 1008347
09:00+13ссв4678100 0.0 1009515
12:00+16ссв346399 0.0 1009840
15:00+18с3454100 0.0 10091066
18:00+15с3560100 0.0 1010767
21:00+11с3773100 0.0 1011321
17 мая, пн
пн1700:00+8с2584100 0.0 1012226
03:00+7с258967 0.0 1013159
06:00+8с248238 0.0 1014202
09:00+13ссв226220 0.0 1015576
12:00+18ссв11483 0.0 1014956
15:00+20в21431 0.0 10141309
18:00+18вюв33511 0.0 1014678
21:00+12в236899 0.0 101454